Total_Precipitation_Accumulation
0.78 0.78 0.79 0.77 0.75 0.74 0.74 0.72 0.73 0.79 0.80 0.83 1.00 1.06 1.14 1.22 1.39 1.65 1.83 1.84 1.76 1.77 1.76 1.84 1.99 2.07 2.30 2.28 2.19 2.08 1.93 1.74 1.58 1.44 1.24 1.05 1.11 1.16 1.18 1.18 1.10 1.03 0.88
0.88 0.87 0.79 0.70 0.67 0.67 0.64 0.57 0.58 0.56 0.55 0.68 0.81 0.86 0.90 0.96 1.14 1.44 1.63 1.67 1.64 1.55 1.54 1.64 1.85 2.02 2.23 2.34 2.31 2.17 2.05 1.90 1.78 1.70 1.53 1.29 1.18 1.22 1.31 1.35 1.29 1.20 1.12
0.92 0.82 0.74 0.68 0.59 0.55 0.49 0.45 0.51 0.53 0.58 0.68 0.78 0.84 0.86 0.92 0.96 1.07 1.23 1.35 1.34 1.28 1.31 1.36 1.42 1.59 1.86 2.06 2.12 2.14 2.17 2.13 2.07 1.91 1.71 1.55 1.38 1.28 1.35 1.37 1.30 1.34 1.24
1.06 0.96 0.85 0.74 0.62 0.57 0.50 0.45 0.44 0.46 0.53 0.60 0.65 0.73 0.81 0.88 0.89 0.91 0.94 1.01 1.02 1.06 1.12 1.18 1.21 1.24 1.43 1.62 1.74 1.95 2.18 2.19 2.16 2.07 1.87 1.66 1.52 1.40 1.45 1.46 1.45 1.42 1.35
1.08 1.07 0.93 0.74 0.61 0.55 0.50 0.43 0.41 0.41 0.43 0.49 0.56 0.60 0.67 0.76 0.85 0.88 0.76 0.73 0.80 0.89 0.93 0.92 0.93 1.00 1.12 1.21 1.28 1.63 1.97 2.14 2.11 2.05 1.92 1.78 1.56 1.45 1.32 1.30 1.44 1.61 1.61
0.99 0.97 0.75 0.58 0.47 0.42 0.41 0.40 0.35 0.35 0.40 0.45 0.46 0.49 0.61 0.66 0.79 0.77 0.60 0.59 0.63 0.73 0.82 0.82 0.72 0.72 0.77 0.84 0.91 1.09 1.36 1.59 1.85 2.00 1.93 1.74 1.56 1.45 1.39 1.40 1.43 1.50 1.56
0.64 0.60 0.51 0.40 0.38 0.41 0.43 0.37 0.35 0.34 0.36 0.39 0.40 0.42 0.48 0.62 0.66 0.52 0.49 0.52 0.60 0.65 0.71 0.77 0.70 0.60 0.68 0.73 0.82 0.89 0.91 0.99 1.25 1.58 1.71 1.67 1.74 1.61 1.55 1.48 1.44 1.47 1.47
0.40 0.40 0.34 0.31 0.32 0.34 0.36 0.34 0.40 0.44 0.42 0.43 0.46 0.47 0.48 0.53 0.51 0.41 0.43 0.46 0.52 0.58 0.66 0.75 0.80 0.72 0.71 0.82 0.83 0.86 0.82 0.77 0.97 0.99 1.17 1.46 1.62 1.69 1.65 1.72 1.87 1.81 1.64
0.12 0.13 0.12 0.12 0.13 0.15 0.16 0.22 0.33 0.40 0.42 0.45 0.49 0.50 0.47 0.45 0.45 0.37 0.39 0.47 0.52 0.57 0.59 0.64 0.71 0.69 0.83 0.91 0.90 1.01 1.00 0.89 1.01 1.07 1.11 1.14 1.26 1.40 1.52 1.59 1.67 1.72 1.69
0.01 0.01 0.01 0.02 0.02 0.04 0.06 0.09 0.16 0.20 0.25 0.33 0.35 0.39 0.43 0.43 0.52 0.41 0.41 0.47 0.56 0.65 0.67 0.65 0.78 0.78 0.83 0.82 0.80 1.01 1.03 0.93 0.85 0.91 0.92 0.91 0.86 0.94 1.14 1.31 1.50 1.58 1.54
0.00 0.00 0.00 0.00 0.00 0.01 0.02 0.04 0.07 0.09 0.13 0.17 0.22 0.28 0.36 0.43 0.52 0.50 0.54 0.57 0.64 0.76 0.75 0.67 0.61 0.70 0.59 0.65 0.69 0.74 0.95 0.95 0.85 0.90 0.92 0.86 0.81 0.81 0.87 1.00 1.22 1.41 1.44
0.00 0.00 0.00 0.00 0.00 0.01 0.01 0.02 0.02 0.04 0.07 0.10 0.12 0.17 0.24 0.30 0.38 0.45 0.46 0.52 0.60 0.70 0.75 0.63 0.60 0.66 0.51 0.49 0.52 0.62 0.75 0.86 0.85 0.89 0.90 0.88 0.80 0.72 0.74 0.82 0.91 0.98 1.03
0.00 0.00 0.01 0.01 0.01 0.01 0.02 0.02 0.02 0.04 0.06 0.08 0.11 0.18 0.24 0.31 0.35 0.32 0.31 0.34 0.42 0.53 0.56 0.58 0.57 0.53 0.48 0.45 0.45 0.52 0.59 0.69 0.84 0.86 0.80 0.78 0.71 0.66 0.65 0.68 0.76 0.83 0.87
0.00 0.00 0.00 0.01 0.01 0.01 0.02 0.03 0.04 0.05 0.07 0.10 0.16 0.22 0.27 0.31 0.34 0.33 0.35 0.38 0.39 0.42 0.42 0.42 0.44 0.46 0.50 0.48 0.44 0.48 0.56 0.66 0.72 0.71 0.66 0.63 0.66 0.67 0.70 0.70 0.73 0.79 0.84
0.00 0.00 0.00 0.01 0.01 0.01 0.01 0.01 0.03 0.04 0.06 0.12 0.20 0.25 0.26 0.26 0.22 0.23 0.35 0.46 0.53 0.58 0.64 0.58 0.58 0.58 0.54 0.49 0.45 0.46 0.50 0.54 0.55 0.54 0.53 0.50 0.50 0.55 0.60 0.64 0.68 0.68 0.71
0.00 0.00 0.00 0.01 0.01 0.02 0.02 0.01 0.01 0.03 0.06 0.08 0.09 0.12 0.14 0.14 0.14 0.17 0.25 0.36 0.45 0.57 0.73 0.76 0.79 0.80 0.74 0.63 0.53 0.45 0.41 0.42 0.44 0.46 0.49 0.49 0.47 0.48 0.55 0.57 0.60 0.61 0.60
0.00 0.00 0.00 0.01 0.01 0.01 0.02 0.04 0.06 0.05 0.03 0.03 0.03 0.05 0.12 0.20 0.24 0.29 0.31 0.35 0.38 0.53 0.72 0.79 0.79 0.76 0.69 0.64 0.59 0.49 0.42 0.38 0.40 0.40 0.40 0.43 0.44 0.46 0.51 0.53 0.51 0.53 0.54
0.00 0.00 0.01 0.03 0.05 0.06 0.07 0.10 0.15 0.19 0.17 0.09 0.04 0.04 0.07 0.16 0.20 0.24 0.32 0.44 0.46 0.53 0.63 0.65 0.64 0.52 0.44 0.42 0.39 0.35 0.31 0.29 0.31 0.31 0.29 0.32 0.36 0.38 0.41 0.47 0.49 0.49 0.50
0.00 0.01 0.03 0.08 0.10 0.09 0.10 0.14 0.16 0.13 0.11 0.10 0.09 0.07 0.07 0.10 0.13 0.15 0.25 0.43 0.44 0.38 0.34 0.32 0.31 0.28 0.24 0.25 0.25 0.24 0.23 0.22 0.21 0.21 0.20 0.21 0.26 0.31 0.34 0.38 0.44 0.47 0.47
0.01 0.01 0.03 0.08 0.11 0.09 0.09 0.10 0.10 0.08 0.07 0.08 0.10 0.11 0.13 0.15 0.17 0.18 0.21 0.25 0.23 0.19 0.18 0.19 0.19 0.20 0.20 0.21 0.22 0.22 0.21 0.20 0.20 0.20 0.20 0.20 0.23 0.27 0.31 0.37 0.42 0.45 0.44
0.01 0.02 0.03 0.05 0.08 0.07 0.07 0.07 0.07 0.08 0.08 0.10 0.10 0.11 0.15 0.21 0.21 0.21 0.22 0.22 0.20 0.19 0.19 0.21 0.19 0.19 0.21 0.23 0.25 0.26 0.25 0.24 0.23 0.22 0.22 0.23 0.24 0.27 0.31 0.39 0.45 0.47 0.48
0.02 0.04 0.05 0.07 0.07 0.06 0.07 0.09 0.12 0.11 0.10 0.12 0.12 0.13 0.17 0.21 0.23 0.21 0.21 0.22 0.21 0.21 0.23 0.27 0.27 0.24 0.24 0.27 0.30 0.30 0.30 0.30 0.28 0.25 0.24 0.23 0.24 0.26 0.29 0.36 0.43 0.48 0.52
0.03 0.04 0.06 0.08 0.08 0.07 0.08 0.11 0.13 0.13 0.12 0.13 0.15 0.16 0.19 0.22 0.24 0.25 0.25 0.24 0.24 0.25 0.25 0.27 0.30 0.29 0.26 0.28 0.32 0.35 0.35 0.33 0.32 0.31 0.29 0.28 0.28 0.28 0.30 0.32 0.36 0.42 0.47
0.05 0.06 0.07 0.09 0.10 0.09 0.11 0.12 0.13 0.13 0.14 0.16 0.17 0.18 0.20 0.22 0.22 0.22 0.24 0.25 0.27 0.28 0.27 0.27 0.28 0.26 0.26 0.28 0.31 0.34 0.37 0.36 0.33 0.31 0.31 0.31 0.33 0.34 0.36 0.39 0.43 0.46 0.51
0.07 0.07 0.08 0.09 0.10 0.10 0.10 0.12 0.14 0.14 0.15 0.17 0.17 0.17 0.19 0.21 0.21 0.21 0.22 0.23 0.25 0.27 0.27 0.29 0.30 0.28 0.27 0.27 0.30 0.33 0.41 0.42 0.38 0.36 0.32 0.31 0.33 0.36 0.41 0.49 0.55 0.59 0.62
0.07 0.08 0.09 0.10 0.11 0.11 0.11 0.13 0.14 0.15 0.17 0.17 0.17 0.18 0.21 0.23 0.22 0.22 0.22 0.23 0.24 0.25 0.24 0.26 0.28 0.27 0.27 0.28 0.31 0.37 0.42 0.39 0.37 0.37 0.34 0.32 0.34 0.35 0.36 0.40 0.44 0.49 0.54